This is the latest recevied weather packets stored in our database for station/object K5NCO. If no packets are shown the sender has not sent any weather packets the latest 10 day(s).
| Time | Temp. | Humidity | Pressure | Rain* | Wind** | Luminosity | Snow |
|---|---|---|---|---|---|---|---|
| 1777555453 | 15.56° C | 99% | 1014.9 hPa | 0 mm | - | 17 W/m² | - |
| 1777555149 | 15.56° C | 99% | 1015.1 hPa | 0 mm | - | 11 W/m² | - |
| 1777554847 | 15.56° C | 99% | 1014.9 hPa | 0 mm | - | 11 W/m² | - |
| 1777554543 | 15.56° C | 99% | 1014.8 hPa | 0 mm | - | 11 W/m² | - |
| 1777554240 | 15.56° C | 99% | 1014.5 hPa | 0 mm | - | 10 W/m² | - |
| 1777553937 | 15.56° C | 99% | 1014.5 hPa | 0 mm | - | 8 W/m² | - |
| 1777553633 | 15.56° C | 99% | 1014.5 hPa | 0 mm | - | 6 W/m² | - |
| 1777553330 | 15.56° C | 99% | 1014.1 hPa | 0 mm | - | 6 W/m² | - |
| 1777553026 | 15.56° C | 99% | 1013.9 hPa | 0 mm | - | 9 W/m² | - |
| 1777552721 | 15.56° C | 99% | 1014.1 hPa | 0 mm | - | 6 W/m² | - |
| 1777552417 | 15.56° C | 99% | 1013.6 hPa | 0 mm | - | 7 W/m² | - |
| 1777552114 | 15.56° C | 99% | 1013.7 hPa | 0 mm | - | 4 W/m² | - |
| 1777551811 | 15.56° C | 99% | 1013.8 hPa | 0 mm | - | 3 W/m² | - |
| 1777551509 | 15.56° C | 99% | 1013.6 hPa | 0 mm | - | 2 W/m² | - |
| 1777551205 | 15.56° C | 99% | 1013.2 hPa | 0 mm | - | 3 W/m² | - |
| 1777550902 | 15.56° C | 99% | 1013.1 hPa | 0 mm | - | 2 W/m² | - |
| 1777550599 | 15.56° C | 99% | 1013 hPa | 0 mm | - | 1 W/m² | - |
| 1777550295 | 15.56° C | 99% | 1013 hPa | 0 mm | - | 1 W/m² | - |
| 1777549992 | 15.56° C | 99% | 1012.9 hPa | 0 mm | - | 0 W/m² | - |
| 1777549688 | 15.56° C | 99% | 1012.9 hPa | 0 mm | - | 0 W/m² | - |
| 1777549383 | 15.56° C | 99% | 1012.6 hPa | 0 mm | - | 0 W/m² | - |
| 1777549081 | 15.56° C | 99% | 1012.6 hPa | 0 mm | - | 0 W/m² | - |
| 1777548776 | 15.56° C | 99% | 1012.8 hPa | 0 mm | - | 0 W/m² | - |
| 1777548474 | 15.56° C | 99% | 1012.9 hPa | 0 mm | - | 0 W/m² | - |
| 1777548170 | 15.56° C | 99% | 1013.2 hPa | 0 mm | - | 0 W/m² | - |
* Rain latest hour (hover to see other rain measurements)
** Current wind speed in m/s (hover to see current wind gust speed)